Showing default

YAOGAN-43 03B, 61618

Orbit data source: Space-Track

YAOGAN-43 03B, 61618 is a payload satellite owned by PLA GAD (CN) in LEO that was launched on Wed, 23 Oct 2024 UTC via a CHANG ZHENG 2C launch vehicle from the Xichang Space Center, China (XSC). Payload-class satellites include a variety of spacecraft equipped with specific instruments for various scientific and technological missions. These include communications satellites like Starlink; space stations such as the ISS; scientific satellites like the Hubble; Earth observation satellites from companies like Planet Labs, Umbra, and HawkEye 360; GPS; miniature CubeSats for education and research; and military/defense satellites.

Loading next visibility...
Identifier
61618, 2024-190B
Orbit
LEO
Country
Flag of CNCN / PRC
Related business
Manufacturer
SAST
Mission
Operational Defense Communications
Bus & Motor
Unknown
Mass
~300 kg wet, ~300 kg dry
Launch date (UTC)
2024-10-23 (1 year ago)
Launch vehicle
CHANG ZHENG 2C
Launch site
Xichang Space Center, China (XSC)
Object type
Payload
Rocket body
Debris
Shape & HBR
Box + 2 Pan, 2.5 m
Radar Cross Section
11.063 m², Large (>1 m²)

Expand to show TLE details & history
Last TLE update: 9 hours ago

TLE from 9 hours ago
0 YAOGAN-43 03B
1 61618U 24190B   25302.44087273  .00015344  00000-0  63686-3 0  9994
2 61618  34.9865 208.9736 0006474 130.4479 229.6800 15.22998321 56665
Epoch: 2025-10-29T10:34Z
TLE epoch observation values (Epoch: 2025-10-29T10:34:51.403Z)
Latitude
-0.00007°
Longitude
12.24535°
Altitude
498.589 km
Speed
7.616 km/s
True Right ascension
13h 55m 53s
True Declination
0° 00' 00"
Sunlit
Object was in daylight at epoch
Visualization orbit readout
Latitude
Unknown
Longitude
Unknown
Altitude
Unknown
Speed
Unknown
Apparent Right ascension
Unknown
Apparent Declination
Unknown
Sunlit
N/A
Visualization observer readout
Local Sidereal Time
14:48:58
Azimuth
Unknown
Elevation
Unknown
Doppler factor
Unknown
Orbital elements
Apogee altitude
504.508 km
Perigee altitude
495.602 km
Semi-major axis
6,878.192 km
Eccentricity
0.00065
Inclination
34.9865°
RAAN
208.9736°
Arg. of periapsis
130.4479°
True anomaly
229.62347°
Mean anomaly
229.68°
Eccentric anomaly
229.65173°
Mean motion
3.8048 °/min
Orbital period
94.62 mins
BSTAR
0.00063686
Loading maneuver chart data...
Computing Atmospheric mass density...
Loading historical data...
Loading historical data...
Loading historical data...
Loading historical data...
Loading historical data...
Loading historical data...
Loading historical data...
Other satellites on launch #190 in the year 2024 (2024-10-23 UTC)

Documentation

Showing up to 5 results
|